Tracking 29967 objects as of 5-Dec-2024
HD Live streaming from Space Station
objects crossing your sky now

STARLINK-30530

Track STARLINK-30530 now!
10-day predictions
STARLINK-30530 is classified as:


NORAD ID: 58005
Int'l Code: 2023-153Q
Perigee: 565.7 km
Apogee: 566.7 km
Inclination: 43.0 °
Period: 95.8 minutes
Semi major axis: 6937 km
RCS: Unknown
Launch date: October 5, 2023
Source: United States (US)
Launch site: AIR FORCE EASTERN TEST RANGE (AFETR)
Your satellite tracking list
Your tracking list is empty




NASA's NSSDC Master Catalog

Two Line Element Set (TLE):
1 58005U 23153Q   24340.49405925  .00000387  00000-0  43728-4 0  9999
2 58005  43.0018  43.7002 0000701 255.6457 104.4307 15.02534215 65800
Source of the keplerian elements: AFSPC